Year,Month,Day,Hour,Minute,Value (Times are PST for temperature in C)
2019,10,20,00,00,4.70
2019,10,20,00,01,4.60
2019,10,20,00,02,4.60
2019,10,20,00,03,4.60
2019,10,20,00,04,4.60
2019,10,20,00,05,4.60
2019,10,20,00,06,4.60
2019,10,20,00,07,4.60
2019,10,20,00,08,4.60
2019,10,20,00,09,4.60
2019,10,20,00,10,4.60
2019,10,20,00,11,4.50
2019,10,20,00,12,4.50
2019,10,20,00,13,4.50
2019,10,20,00,14,4.50
2019,10,20,00,15,4.50
2019,10,20,00,16,4.50
2019,10,20,00,17,4.50
2019,10,20,00,18,4.50
2019,10,20,00,19,4.50
2019,10,20,00,20,4.50
2019,10,20,00,21,4.60
2019,10,20,00,22,4.60
2019,10,20,00,23,4.60
2019,10,20,00,24,4.60
2019,10,20,00,25,4.60
2019,10,20,00,26,4.60
2019,10,20,00,27,4.60
2019,10,20,00,28,4.60
2019,10,20,00,29,4.60
2019,10,20,00,30,4.70
2019,10,20,00,31,4.70
2019,10,20,00,32,4.70
2019,10,20,00,33,4.70
2019,10,20,00,34,4.70
2019,10,20,00,35,4.70
2019,10,20,00,36,4.70
2019,10,20,00,37,4.70
2019,10,20,00,38,4.80
2019,10,20,00,39,4.80
2019,10,20,00,40,4.80
2019,10,20,00,41,4.80
2019,10,20,00,42,4.90
2019,10,20,00,43,4.90
2019,10,20,00,44,4.90
2019,10,20,00,45,5.00
2019,10,20,00,46,5.00
2019,10,20,00,47,5.00
2019,10,20,00,48,5.00
2019,10,20,00,49,5.10
2019,10,20,00,50,5.10
2019,10,20,00,51,5.10
2019,10,20,00,52,5.10
2019,10,20,00,53,5.10
2019,10,20,00,54,5.10
2019,10,20,00,55,5.10
2019,10,20,00,56,5.10
2019,10,20,00,57,5.10
2019,10,20,00,58,5.10
2019,10,20,00,59,5.10
2019,10,20,01,00,5.20
2019,10,20,01,01,5.20
2019,10,20,01,02,5.20
2019,10,20,01,03,5.20
2019,10,20,01,04,5.20
2019,10,20,01,05,5.20
2019,10,20,01,06,5.20
2019,10,20,01,07,5.20
2019,10,20,01,08,5.20
2019,10,20,01,09,5.20
2019,10,20,01,10,5.20
2019,10,20,01,11,5.20
2019,10,20,01,12,5.20
2019,10,20,01,13,5.30
2019,10,20,01,14,5.30
2019,10,20,01,15,5.30
2019,10,20,01,16,5.30
2019,10,20,01,17,5.30
2019,10,20,01,18,5.30
2019,10,20,01,19,5.40
2019,10,20,01,20,5.40
2019,10,20,01,21,5.40
2019,10,20,01,22,5.40
2019,10,20,01,23,5.40
2019,10,20,01,24,5.50
2019,10,20,01,25,5.50
2019,10,20,01,26,5.50
2019,10,20,01,27,5.50
2019,10,20,01,28,5.50
2019,10,20,01,29,5.50
2019,10,20,01,30,5.50
2019,10,20,01,31,5.50
2019,10,20,01,32,5.60
2019,10,20,01,33,5.60
2019,10,20,01,34,5.60
2019,10,20,01,35,5.60
2019,10,20,01,36,5.60
2019,10,20,01,37,5.70
2019,10,20,01,38,5.70
2019,10,20,01,39,5.70
2019,10,20,01,40,5.70
2019,10,20,01,41,5.70
2019,10,20,01,42,5.70
2019,10,20,01,43,5.70
2019,10,20,01,44,5.70
2019,10,20,01,45,5.70
2019,10,20,01,46,5.70
2019,10,20,01,47,5.70
2019,10,20,01,48,5.70
2019,10,20,01,49,5.70
2019,10,20,01,50,5.70
2019,10,20,01,51,5.70
2019,10,20,01,52,5.70
2019,10,20,01,53,5.70
2019,10,20,01,54,5.70
2019,10,20,01,55,5.80
2019,10,20,01,56,5.80
2019,10,20,01,57,5.80
2019,10,20,01,58,5.80
2019,10,20,01,59,5.80
2019,10,20,02,00,5.80
2019,10,20,02,01,5.90
2019,10,20,02,02,5.90
2019,10,20,02,03,5.90
2019,10,20,02,04,5.90
2019,10,20,02,05,5.90
2019,10,20,02,06,5.90
2019,10,20,02,07,5.90
2019,10,20,02,08,5.90
2019,10,20,02,09,5.90
2019,10,20,02,10,6.00
2019,10,20,02,11,6.00
2019,10,20,02,12,6.00
2019,10,20,02,13,6.00
2019,10,20,02,14,6.00
2019,10,20,02,15,6.00
2019,10,20,02,16,6.00
2019,10,20,02,17,6.00
2019,10,20,02,18,6.10
2019,10,20,02,19,6.10
2019,10,20,02,20,6.10
2019,10,20,02,21,6.10
2019,10,20,02,22,6.10
2019,10,20,02,23,6.10
2019,10,20,02,24,6.10
2019,10,20,02,25,6.10
2019,10,20,02,26,6.10
2019,10,20,02,27,6.10
2019,10,20,02,28,6.10
2019,10,20,02,29,6.10
2019,10,20,02,30,6.10
2019,10,20,02,31,6.10
2019,10,20,02,32,6.10
2019,10,20,02,33,6.10
2019,10,20,02,34,6.10
2019,10,20,02,35,6.10
2019,10,20,02,36,6.10
2019,10,20,02,37,6.10
2019,10,20,02,38,6.10
2019,10,20,02,39,6.10
2019,10,20,02,40,6.10
2019,10,20,02,41,6.10
2019,10,20,02,42,6.10
2019,10,20,02,43,6.20
2019,10,20,02,44,6.20
2019,10,20,02,45,6.20
2019,10,20,02,46,6.20
2019,10,20,02,47,6.20
2019,10,20,02,48,6.20
2019,10,20,02,49,6.20
2019,10,20,02,50,6.20
2019,10,20,02,51,6.20
2019,10,20,02,52,6.20
2019,10,20,02,53,6.20
2019,10,20,02,54,6.20
2019,10,20,02,55,6.20
2019,10,20,02,56,6.20
2019,10,20,02,57,6.20
2019,10,20,02,58,6.20
2019,10,20,02,59,6.20
2019,10,20,03,00,6.20
2019,10,20,03,01,6.20
2019,10,20,03,02,6.20
2019,10,20,03,03,6.20
2019,10,20,03,04,6.20
2019,10,20,03,05,6.20
2019,10,20,03,06,6.20
2019,10,20,03,07,6.30
2019,10,20,03,08,6.30
2019,10,20,03,09,6.30
2019,10,20,03,10,6.30
2019,10,20,03,11,6.30
2019,10,20,03,12,6.30
2019,10,20,03,13,6.30
2019,10,20,03,14,6.30
2019,10,20,03,15,6.30
2019,10,20,03,16,6.30
2019,10,20,03,17,6.30
2019,10,20,03,18,6.30
2019,10,20,03,19,6.30
2019,10,20,03,20,6.30
2019,10,20,03,21,6.30
2019,10,20,03,22,6.30
2019,10,20,03,23,6.30
2019,10,20,03,24,6.30
2019,10,20,03,25,6.30
2019,10,20,03,26,6.30
2019,10,20,03,27,6.30
2019,10,20,03,28,6.30
2019,10,20,03,29,6.30
2019,10,20,03,30,6.40
2019,10,20,03,31,6.40
2019,10,20,03,32,6.40
2019,10,20,03,33,6.40
2019,10,20,03,34,6.40
2019,10,20,03,35,6.40
2019,10,20,03,36,6.40
2019,10,20,03,37,6.40
2019,10,20,03,38,6.40
2019,10,20,03,39,6.40
2019,10,20,03,40,6.40
2019,10,20,03,41,6.40
2019,10,20,03,42,6.50
2019,10,20,03,43,6.50
2019,10,20,03,44,6.50
2019,10,20,03,45,6.50
2019,10,20,03,46,6.50
2019,10,20,03,47,6.60
2019,10,20,03,48,6.60
2019,10,20,03,49,6.60
2019,10,20,03,50,6.60
2019,10,20,03,51,6.60
2019,10,20,03,52,6.60
2019,10,20,03,53,6.60
2019,10,20,03,54,6.60
2019,10,20,03,55,6.60
2019,10,20,03,56,6.60
2019,10,20,03,57,6.60
2019,10,20,03,58,6.60
2019,10,20,03,59,6.60
2019,10,20,04,00,6.60
2019,10,20,04,01,6.60
2019,10,20,04,02,6.60
2019,10,20,04,03,6.60
2019,10,20,04,04,6.60
2019,10,20,04,05,6.60
2019,10,20,04,06,6.60
2019,10,20,04,07,6.60
2019,10,20,04,08,6.60
2019,10,20,04,09,6.60
2019,10,20,04,10,6.60
2019,10,20,04,11,6.60
2019,10,20,04,12,6.60
2019,10,20,04,13,6.60
2019,10,20,04,14,6.60
2019,10,20,04,15,6.60
2019,10,20,04,16,6.70
2019,10,20,04,17,6.70
2019,10,20,04,18,6.70
2019,10,20,04,19,6.70
2019,10,20,04,20,6.70
2019,10,20,04,21,6.70
2019,10,20,04,22,6.70
2019,10,20,04,23,6.70
2019,10,20,04,24,6.70
2019,10,20,04,25,6.70
2019,10,20,04,26,6.70
2019,10,20,04,27,6.70
2019,10,20,04,28,6.70
2019,10,20,04,29,6.70
2019,10,20,04,30,6.70
2019,10,20,04,31,6.70
2019,10,20,04,32,6.80
2019,10,20,04,33,6.80
2019,10,20,04,34,6.80
2019,10,20,04,35,6.90
2019,10,20,04,36,6.90
2019,10,20,04,37,7.00
2019,10,20,04,38,7.00
2019,10,20,04,39,7.10
2019,10,20,04,40,7.10
2019,10,20,04,41,7.20
2019,10,20,04,42,7.30
2019,10,20,04,43,7.30
2019,10,20,04,44,7.40
2019,10,20,04,45,7.40
2019,10,20,04,46,7.40
2019,10,20,04,47,7.50
2019,10,20,04,48,7.50
2019,10,20,04,49,7.60
2019,10,20,04,50,7.60
2019,10,20,04,51,7.60
2019,10,20,04,52,7.70
2019,10,20,04,53,7.70
2019,10,20,04,54,7.70
2019,10,20,04,55,7.80
2019,10,20,04,56,7.80
2019,10,20,04,57,7.90
2019,10,20,04,58,7.90
2019,10,20,04,59,8.00
2019,10,20,05,00,8.00
2019,10,20,05,01,8.10
2019,10,20,05,02,8.10
2019,10,20,05,03,8.10
2019,10,20,05,04,8.10
2019,10,20,05,05,8.20
2019,10,20,05,06,8.20
2019,10,20,05,07,8.20
2019,10,20,05,08,8.20
2019,10,20,05,09,8.20
2019,10,20,05,10,8.20
2019,10,20,05,11,8.20
2019,10,20,05,12,8.30
2019,10,20,05,13,8.30
2019,10,20,05,14,8.30
2019,10,20,05,15,8.30
2019,10,20,05,16,8.30
2019,10,20,05,17,8.40
2019,10,20,05,18,8.40
2019,10,20,05,19,8.40
2019,10,20,05,20,8.40
2019,10,20,05,21,8.40
2019,10,20,05,22,8.40
2019,10,20,05,23,8.40
2019,10,20,05,24,8.40
2019,10,20,05,25,8.50
2019,10,20,05,26,8.50
2019,10,20,05,27,8.50
2019,10,20,05,28,8.50
2019,10,20,05,29,8.50
2019,10,20,05,30,8.50
2019,10,20,05,31,8.50
2019,10,20,05,32,8.50
2019,10,20,05,33,8.50
2019,10,20,05,34,8.50
2019,10,20,05,35,8.50
2019,10,20,05,36,8.50
2019,10,20,05,37,8.50
2019,10,20,05,38,8.50
2019,10,20,05,39,8.50
2019,10,20,05,40,8.50
2019,10,20,05,41,8.50
2019,10,20,05,42,8.50
2019,10,20,05,43,8.50
2019,10,20,05,44,8.40
2019,10,20,05,45,8.40
2019,10,20,05,46,8.40
2019,10,20,05,47,8.40
2019,10,20,05,48,8.40
2019,10,20,05,49,8.40
2019,10,20,05,50,8.30
2019,10,20,05,51,8.30
2019,10,20,05,52,8.30
2019,10,20,05,53,8.30
2019,10,20,05,54,8.30
2019,10,20,05,55,8.30
2019,10,20,05,56,8.30
2019,10,20,05,57,8.30
2019,10,20,05,58,8.30
2019,10,20,05,59,8.30
2019,10,20,06,00,8.30
2019,10,20,06,01,8.30
2019,10,20,06,02,8.30
2019,10,20,06,03,8.30
2019,10,20,06,04,8.30
2019,10,20,06,05,8.30
2019,10,20,06,06,8.30
2019,10,20,06,07,8.30
2019,10,20,06,08,8.30
2019,10,20,06,09,8.20
2019,10,20,06,10,8.20
2019,10,20,06,11,8.20
2019,10,20,06,12,8.20
2019,10,20,06,13,8.20
2019,10,20,06,14,8.20
2019,10,20,06,15,8.30
2019,10,20,06,16,8.30
2019,10,20,06,17,8.30
2019,10,20,06,18,8.30
2019,10,20,06,19,8.30
2019,10,20,06,20,8.30
2019,10,20,06,21,8.30
2019,10,20,06,22,8.30
2019,10,20,06,23,8.30
2019,10,20,06,24,8.30
2019,10,20,06,25,8.30
2019,10,20,06,26,8.30
2019,10,20,06,27,8.40
2019,10,20,06,28,8.40
2019,10,20,06,29,8.40
2019,10,20,06,30,8.30
2019,10,20,06,31,8.30
2019,10,20,06,32,8.30
2019,10,20,06,33,8.30
2019,10,20,06,34,8.40
2019,10,20,06,35,8.40
2019,10,20,06,36,8.40
2019,10,20,06,37,8.40
2019,10,20,06,38,8.40
2019,10,20,06,39,8.40
2019,10,20,06,40,8.40
2019,10,20,06,41,8.40
2019,10,20,06,42,8.40
2019,10,20,06,43,8.40
2019,10,20,06,44,8.50
2019,10,20,06,45,8.50
2019,10,20,06,46,8.50
2019,10,20,06,47,8.50
2019,10,20,06,48,8.50
2019,10,20,06,49,8.60
2019,10,20,06,50,8.60
2019,10,20,06,51,8.60
2019,10,20,06,52,8.60
2019,10,20,06,53,8.60
2019,10,20,06,54,8.60
2019,10,20,06,55,8.70
2019,10,20,06,56,8.70
2019,10,20,06,57,8.70
2019,10,20,06,58,8.70
2019,10,20,06,59,8.70
2019,10,20,07,00,8.70
2019,10,20,07,01,8.70
2019,10,20,07,02,8.70
2019,10,20,07,03,8.70
2019,10,20,07,04,8.80
2019,10,20,07,05,8.80
2019,10,20,07,06,8.80
2019,10,20,07,07,8.80
2019,10,20,07,08,8.80
2019,10,20,07,09,8.80
2019,10,20,07,10,8.80
2019,10,20,07,11,8.80
2019,10,20,07,12,8.80
2019,10,20,07,13,8.80
2019,10,20,07,14,8.80
2019,10,20,07,15,8.80
2019,10,20,07,16,8.80
2019,10,20,07,17,8.80
2019,10,20,07,18,8.80
2019,10,20,07,19,8.80
2019,10,20,07,20,8.80
2019,10,20,07,21,8.70
2019,10,20,07,22,8.70
2019,10,20,07,23,8.70
2019,10,20,07,24,8.60
2019,10,20,07,25,8.60
2019,10,20,07,26,8.60
2019,10,20,07,27,8.50
2019,10,20,07,28,8.50
2019,10,20,07,29,8.40
2019,10,20,07,30,8.40
2019,10,20,07,31,8.40
2019,10,20,07,32,8.40
2019,10,20,07,33,8.30
2019,10,20,07,34,8.30
2019,10,20,07,35,8.30
2019,10,20,07,36,8.30
2019,10,20,07,37,8.30
2019,10,20,07,38,8.30
2019,10,20,07,39,8.30
2019,10,20,07,40,8.30
2019,10,20,07,41,8.30
2019,10,20,07,42,8.30
2019,10,20,07,43,8.30
2019,10,20,07,44,8.20
2019,10,20,07,45,8.20
2019,10,20,07,46,8.20
2019,10,20,07,47,8.20
2019,10,20,07,48,8.30
2019,10,20,07,49,8.30
2019,10,20,07,50,8.30
2019,10,20,07,51,8.30
2019,10,20,07,52,8.30
2019,10,20,07,53,8.30
2019,10,20,07,54,8.30
2019,10,20,07,55,8.30
2019,10,20,07,56,8.30
2019,10,20,07,57,8.30
2019,10,20,07,58,8.30
2019,10,20,07,59,8.30
2019,10,20,08,00,8.30
2019,10,20,08,01,8.40
2019,10,20,08,02,8.40
2019,10,20,08,03,8.40
2019,10,20,08,04,8.40
2019,10,20,08,05,8.50
2019,10,20,08,06,8.50
2019,10,20,08,07,8.50
2019,10,20,08,08,8.50
2019,10,20,08,09,8.50
2019,10,20,08,10,8.50
2019,10,20,08,11,8.50
2019,10,20,08,12,8.50
2019,10,20,08,13,8.50
2019,10,20,08,14,8.50
2019,10,20,08,15,8.50
2019,10,20,08,16,8.50
2019,10,20,08,17,8.50
2019,10,20,08,18,8.50
2019,10,20,08,19,8.50
2019,10,20,08,20,8.50
2019,10,20,08,21,8.50
2019,10,20,08,22,8.60
2019,10,20,08,23,8.60
2019,10,20,08,24,8.60
2019,10,20,08,25,8.60
2019,10,20,08,26,8.60
2019,10,20,08,27,8.60
2019,10,20,08,28,8.60
2019,10,20,08,29,8.60
2019,10,20,08,30,8.60
2019,10,20,08,31,8.60
2019,10,20,08,32,8.60
2019,10,20,08,33,8.60
2019,10,20,08,34,8.60
2019,10,20,08,35,8.60
2019,10,20,08,36,8.60
2019,10,20,08,37,8.60
2019,10,20,08,38,8.60
2019,10,20,08,39,8.60
2019,10,20,08,40,8.60
2019,10,20,08,41,8.70
2019,10,20,08,42,8.70
2019,10,20,08,43,8.70
2019,10,20,08,44,8.70
2019,10,20,08,45,8.70
2019,10,20,08,46,8.70
2019,10,20,08,47,8.70
2019,10,20,08,48,8.70
2019,10,20,08,49,8.70
2019,10,20,08,50,8.70
2019,10,20,08,51,8.70
2019,10,20,08,52,8.80
2019,10,20,08,53,8.80
2019,10,20,08,54,8.80
2019,10,20,08,55,8.80
2019,10,20,08,56,8.80
2019,10,20,08,57,8.80
2019,10,20,08,58,8.90
2019,10,20,08,59,8.90
2019,10,20,09,00,8.90
2019,10,20,09,01,8.90
2019,10,20,09,02,8.90
2019,10,20,09,03,8.90
2019,10,20,09,04,8.90
2019,10,20,09,05,8.90
2019,10,20,09,06,8.90
2019,10,20,09,07,8.90
2019,10,20,09,08,9.00
2019,10,20,09,09,9.00
2019,10,20,09,10,9.00
2019,10,20,09,11,9.00
2019,10,20,09,12,9.00
2019,10,20,09,13,9.00
2019,10,20,09,14,9.10
2019,10,20,09,15,9.10
2019,10,20,09,16,9.10
2019,10,20,09,17,9.10
2019,10,20,09,18,9.20
2019,10,20,09,19,9.20
2019,10,20,09,20,9.20
2019,10,20,09,21,9.20
2019,10,20,09,22,9.20
2019,10,20,09,23,9.20
2019,10,20,09,24,9.20
2019,10,20,09,25,9.10
2019,10,20,09,26,9.10
2019,10,20,09,27,9.10
2019,10,20,09,28,9.10
2019,10,20,09,29,9.10
2019,10,20,09,30,9.10
2019,10,20,09,31,9.10
2019,10,20,09,32,9.10
2019,10,20,09,33,9.10
2019,10,20,09,34,9.10
2019,10,20,09,35,9.20
2019,10,20,09,36,9.10
2019,10,20,09,37,9.10
2019,10,20,09,38,9.10
2019,10,20,09,39,9.10
2019,10,20,09,40,9.10
2019,10,20,09,41,9.10
2019,10,20,09,42,9.10
2019,10,20,09,43,9.10
2019,10,20,09,44,9.20
2019,10,20,09,45,9.20
2019,10,20,09,46,9.20
2019,10,20,09,47,9.20
2019,10,20,09,48,9.20
2019,10,20,09,49,9.20
2019,10,20,09,50,9.30
2019,10,20,09,51,9.30
2019,10,20,09,52,9.20
2019,10,20,09,53,9.20
2019,10,20,09,54,9.20
2019,10,20,09,55,9.10
2019,10,20,09,56,9.10
2019,10,20,09,57,9.10
2019,10,20,09,58,9.10
2019,10,20,09,59,9.10
2019,10,20,10,00,9.10
2019,10,20,10,01,9.10
2019,10,20,10,02,9.10
2019,10,20,10,03,9.10
2019,10,20,10,04,9.10
2019,10,20,10,05,9.10
2019,10,20,10,06,9.10
2019,10,20,10,07,9.10
2019,10,20,10,08,9.10
2019,10,20,10,09,9.10
2019,10,20,10,10,9.10
2019,10,20,10,11,9.10
2019,10,20,10,12,9.10
2019,10,20,10,13,9.10
2019,10,20,10,14,9.10
2019,10,20,10,15,9.10
2019,10,20,10,16,9.10
2019,10,20,10,17,9.10
2019,10,20,10,18,9.10
2019,10,20,10,19,9.00
2019,10,20,10,20,9.00
2019,10,20,10,21,9.00
2019,10,20,10,22,9.00
2019,10,20,10,23,9.00
2019,10,20,10,24,9.00
2019,10,20,10,25,9.00
2019,10,20,10,26,9.00
2019,10,20,10,27,9.00
2019,10,20,10,28,9.00
2019,10,20,10,29,9.00
2019,10,20,10,30,9.00
2019,10,20,10,31,8.90
2019,10,20,10,32,8.90
2019,10,20,10,33,8.90
2019,10,20,10,34,8.90
2019,10,20,10,35,8.90
2019,10,20,10,36,8.90
2019,10,20,10,37,8.90
2019,10,20,10,38,8.90
2019,10,20,10,39,9.00
2019,10,20,10,40,9.00
2019,10,20,10,41,9.00
2019,10,20,10,42,9.00
2019,10,20,10,43,9.00
2019,10,20,10,44,9.00
2019,10,20,10,45,9.00
2019,10,20,10,46,9.10
2019,10,20,10,47,9.10
2019,10,20,10,48,9.10
2019,10,20,10,49,9.10
2019,10,20,10,50,9.10
2019,10,20,10,51,9.10
2019,10,20,10,52,9.10
2019,10,20,10,53,9.10
2019,10,20,10,54,9.20
2019,10,20,10,55,9.20
2019,10,20,10,56,9.20
2019,10,20,10,57,9.20
2019,10,20,10,58,9.20
2019,10,20,10,59,9.20
2019,10,20,11,00,9.20
2019,10,20,11,01,9.20
2019,10,20,11,02,9.20
2019,10,20,11,03,9.20
2019,10,20,11,04,9.30
2019,10,20,11,05,9.30
2019,10,20,11,06,9.30
2019,10,20,11,07,9.30
2019,10,20,11,08,9.30
2019,10,20,11,09,9.30
2019,10,20,11,10,9.30
2019,10,20,11,11,9.30
2019,10,20,11,12,9.30
2019,10,20,11,13,9.30
2019,10,20,11,14,9.30
2019,10,20,11,15,9.30
2019,10,20,11,16,9.30
2019,10,20,11,17,9.30
2019,10,20,11,18,9.30
2019,10,20,11,19,9.30
2019,10,20,11,20,9.30
2019,10,20,11,21,9.30
2019,10,20,11,22,9.30
2019,10,20,11,23,9.30
2019,10,20,11,24,9.30
2019,10,20,11,25,9.30
2019,10,20,11,26,9.30
2019,10,20,11,27,9.30
2019,10,20,11,28,9.30
2019,10,20,11,29,9.30
2019,10,20,11,30,9.30
2019,10,20,11,31,9.30
2019,10,20,11,32,9.30
2019,10,20,11,33,9.30
2019,10,20,11,34,9.30
2019,10,20,11,35,9.30
2019,10,20,11,36,9.20
2019,10,20,11,37,9.20
2019,10,20,11,38,9.20
2019,10,20,11,39,9.20
2019,10,20,11,40,9.20
2019,10,20,11,41,9.20
2019,10,20,11,42,9.20
2019,10,20,11,43,9.10
2019,10,20,11,44,9.10
2019,10,20,11,45,9.10
2019,10,20,11,46,9.10
2019,10,20,11,47,9.10
2019,10,20,11,48,9.10
2019,10,20,11,49,9.10
2019,10,20,11,50,9.10
2019,10,20,11,51,9.10
2019,10,20,11,52,9.10
2019,10,20,11,53,9.10
2019,10,20,11,54,9.10
2019,10,20,11,55,9.10
2019,10,20,11,56,9.10
2019,10,20,11,57,9.10
2019,10,20,11,58,9.10
2019,10,20,11,59,9.00
2019,10,20,12,00,9.00
2019,10,20,12,01,8.90
2019,10,20,12,02,8.90
2019,10,20,12,03,8.80
2019,10,20,12,04,8.80
2019,10,20,12,05,8.80
2019,10,20,12,06,8.80
2019,10,20,12,07,8.80
2019,10,20,12,08,8.80
2019,10,20,12,09,8.90
2019,10,20,12,10,8.90
2019,10,20,12,11,8.90
2019,10,20,12,12,8.90
2019,10,20,12,13,8.90
2019,10,20,12,14,8.90
2019,10,20,12,15,8.90
2019,10,20,12,16,8.90
2019,10,20,12,17,8.90
2019,10,20,12,18,8.90
2019,10,20,12,19,8.90
2019,10,20,12,20,8.90
2019,10,20,12,21,8.90
2019,10,20,12,22,8.90
2019,10,20,12,23,8.90
2019,10,20,12,24,8.90
2019,10,20,12,25,8.90
2019,10,20,12,26,8.90
2019,10,20,12,27,8.80
2019,10,20,12,28,8.80
2019,10,20,12,29,8.80
2019,10,20,12,30,8.80
2019,10,20,12,31,8.70
2019,10,20,12,32,8.80
2019,10,20,12,33,8.80
2019,10,20,12,34,8.80
2019,10,20,12,35,8.80
2019,10,20,12,36,8.80
2019,10,20,12,37,8.70
2019,10,20,12,38,8.70
2019,10,20,12,39,8.70
2019,10,20,12,40,8.70
2019,10,20,12,41,8.70
2019,10,20,12,42,8.70
2019,10,20,12,43,8.70
2019,10,20,12,44,8.70
2019,10,20,12,45,8.70
2019,10,20,12,46,8.60
2019,10,20,12,47,8.60
2019,10,20,12,48,8.60
2019,10,20,12,49,8.60
2019,10,20,12,50,8.60
2019,10,20,12,51,8.60
2019,10,20,12,52,8.60
2019,10,20,12,53,8.60
2019,10,20,12,54,8.60
2019,10,20,12,55,8.60
2019,10,20,12,56,8.60
2019,10,20,12,57,8.60
2019,10,20,12,58,8.60
2019,10,20,12,59,8.60
2019,10,20,13,00,8.60
2019,10,20,13,01,8.60
2019,10,20,13,02,8.60
2019,10,20,13,03,8.60
2019,10,20,13,04,8.60
2019,10,20,13,05,8.60
2019,10,20,13,06,8.60
2019,10,20,13,07,8.60
2019,10,20,13,08,8.60
2019,10,20,13,09,8.60
2019,10,20,13,10,8.60
2019,10,20,13,11,8.60
2019,10,20,13,12,8.60
2019,10,20,13,13,8.60
2019,10,20,13,14,8.60
2019,10,20,13,15,8.60
2019,10,20,13,16,8.60
2019,10,20,13,17,8.60
2019,10,20,13,18,8.60
2019,10,20,13,19,8.60
2019,10,20,13,20,8.60
2019,10,20,13,21,8.60
2019,10,20,13,22,8.70
2019,10,20,13,23,8.70
2019,10,20,13,24,8.70
2019,10,20,13,25,8.70
2019,10,20,13,26,8.70
2019,10,20,13,27,8.70
2019,10,20,13,28,8.70
2019,10,20,13,29,8.70
2019,10,20,13,30,8.70
2019,10,20,13,31,8.70
2019,10,20,13,32,8.70
2019,10,20,13,33,8.70
2019,10,20,13,34,8.60
2019,10,20,13,35,8.60
2019,10,20,13,36,8.60
2019,10,20,13,37,8.60
2019,10,20,13,38,8.60
2019,10,20,13,39,8.70
2019,10,20,13,40,8.70
2019,10,20,13,41,8.60
2019,10,20,13,42,8.60
2019,10,20,13,43,8.60
2019,10,20,13,44,8.60
2019,10,20,13,45,8.60
2019,10,20,13,46,8.70
2019,10,20,13,47,8.70
2019,10,20,13,48,8.70
2019,10,20,13,49,8.70
2019,10,20,13,50,8.70
2019,10,20,13,51,8.70
2019,10,20,13,52,8.70
2019,10,20,13,53,8.80
2019,10,20,13,54,8.80
2019,10,20,13,55,8.80
2019,10,20,13,56,8.80
2019,10,20,13,57,8.80
2019,10,20,13,58,8.80
2019,10,20,13,59,8.80
2019,10,20,14,00,8.80
2019,10,20,14,01,8.80
2019,10,20,14,02,8.80
2019,10,20,14,03,8.80
2019,10,20,14,04,8.80
2019,10,20,14,05,8.80
2019,10,20,14,06,8.80
2019,10,20,14,07,8.80
2019,10,20,14,08,8.80
2019,10,20,14,09,8.90
2019,10,20,14,10,8.90
2019,10,20,14,11,8.90
2019,10,20,14,12,8.90
2019,10,20,14,13,8.90
2019,10,20,14,14,8.90
2019,10,20,14,15,8.90
2019,10,20,14,16,8.90
2019,10,20,14,17,9.00
2019,10,20,14,18,9.00
2019,10,20,14,19,9.00
2019,10,20,14,20,9.00
2019,10,20,14,21,9.10
2019,10,20,14,22,9.10
2019,10,20,14,23,9.00
2019,10,20,14,24,9.00
2019,10,20,14,25,9.00
2019,10,20,14,26,9.00
2019,10,20,14,27,9.00
2019,10,20,14,28,9.00
2019,10,20,14,29,9.00
2019,10,20,14,30,9.00
2019,10,20,14,31,9.00
2019,10,20,14,32,9.00
2019,10,20,14,33,9.00
2019,10,20,14,34,9.00
2019,10,20,14,35,9.00
2019,10,20,14,36,9.00
2019,10,20,14,37,9.00
2019,10,20,14,38,9.00
2019,10,20,14,39,9.00
2019,10,20,14,40,9.00
2019,10,20,14,41,9.00
2019,10,20,14,42,9.00
2019,10,20,14,43,9.00
2019,10,20,14,44,9.00
2019,10,20,14,45,9.00
2019,10,20,14,46,9.00
2019,10,20,14,47,9.00
2019,10,20,14,48,9.00
2019,10,20,14,49,9.00
2019,10,20,14,50,9.00
2019,10,20,14,51,9.00
2019,10,20,14,52,9.00
2019,10,20,14,53,9.00
2019,10,20,14,54,9.00
2019,10,20,14,55,9.00
2019,10,20,14,56,9.00
2019,10,20,14,57,9.00
2019,10,20,14,58,8.90
2019,10,20,14,59,8.90
2019,10,20,15,00,8.90
2019,10,20,15,01,8.90
2019,10,20,15,02,8.90
2019,10,20,15,03,8.90
2019,10,20,15,04,8.90
2019,10,20,15,05,8.90
2019,10,20,15,06,8.90
2019,10,20,15,07,8.90
2019,10,20,15,08,8.90
2019,10,20,15,09,8.90
2019,10,20,15,10,8.90
2019,10,20,15,11,8.90
2019,10,20,15,12,8.90
2019,10,20,15,13,8.90
2019,10,20,15,14,8.90
2019,10,20,15,15,8.90
2019,10,20,15,16,9.00
2019,10,20,15,17,9.00
2019,10,20,15,18,9.00
2019,10,20,15,19,9.00
2019,10,20,15,20,9.00
2019,10,20,15,21,9.00
2019,10,20,15,22,9.00
2019,10,20,15,23,9.00
2019,10,20,15,24,9.00
2019,10,20,15,25,9.10
2019,10,20,15,26,9.10
2019,10,20,15,27,9.10
2019,10,20,15,28,9.10
2019,10,20,15,29,9.10
2019,10,20,15,30,9.00
2019,10,20,15,31,9.00
2019,10,20,15,32,9.00
2019,10,20,15,33,8.90
2019,10,20,15,34,8.90
2019,10,20,15,35,8.90
2019,10,20,15,36,8.90
2019,10,20,15,37,8.90
2019,10,20,15,38,8.90
2019,10,20,15,39,8.90
2019,10,20,15,40,8.90
2019,10,20,15,41,8.90
2019,10,20,15,42,8.90
2019,10,20,15,43,8.90
2019,10,20,15,44,8.90
2019,10,20,15,45,8.80
2019,10,20,15,46,8.80
2019,10,20,15,47,8.80
2019,10,20,15,48,8.80
2019,10,20,15,49,8.80
2019,10,20,15,50,8.80
2019,10,20,15,51,8.80
2019,10,20,15,52,8.80
2019,10,20,15,53,8.80
2019,10,20,15,54,8.80
2019,10,20,15,55,8.80
2019,10,20,15,56,8.80
2019,10,20,15,57,8.80
2019,10,20,15,58,8.70
2019,10,20,15,59,8.70
2019,10,20,16,00,8.70
2019,10,20,16,01,8.70
2019,10,20,16,02,8.70
2019,10,20,16,03,8.70
2019,10,20,16,04,8.70
2019,10,20,16,05,8.70
2019,10,20,16,06,8.70
2019,10,20,16,07,8.70
2019,10,20,16,08,8.70
2019,10,20,16,09,8.70
2019,10,20,16,10,8.70
2019,10,20,16,11,8.70
2019,10,20,16,12,8.70
2019,10,20,16,13,8.70
2019,10,20,16,14,8.70
2019,10,20,16,15,8.70
2019,10,20,16,16,8.70
2019,10,20,16,17,8.60
2019,10,20,16,18,8.60
2019,10,20,16,19,8.60
2019,10,20,16,20,8.60
2019,10,20,16,21,8.60
2019,10,20,16,22,8.70
2019,10,20,16,23,8.70
2019,10,20,16,24,8.70
2019,10,20,16,25,8.70
2019,10,20,16,26,8.70
2019,10,20,16,27,8.70
2019,10,20,16,28,8.70
2019,10,20,16,29,8.70
2019,10,20,16,30,8.70
2019,10,20,16,31,8.60
2019,10,20,16,32,8.70
2019,10,20,16,33,8.70
2019,10,20,16,34,8.70
2019,10,20,16,35,8.70
2019,10,20,16,36,8.60
2019,10,20,16,37,8.60
2019,10,20,16,38,8.60
2019,10,20,16,39,8.70
2019,10,20,16,40,8.70
2019,10,20,16,41,8.70
2019,10,20,16,42,8.70
2019,10,20,16,43,8.70
2019,10,20,16,44,8.70
2019,10,20,16,45,8.70
2019,10,20,16,46,8.70
2019,10,20,16,47,8.70
2019,10,20,16,48,8.70
2019,10,20,16,49,8.70
2019,10,20,16,50,8.70
2019,10,20,16,51,8.60
2019,10,20,16,52,8.60
2019,10,20,16,53,8.60
2019,10,20,16,54,8.60
2019,10,20,16,55,8.60
2019,10,20,16,56,8.60
2019,10,20,16,57,8.60
2019,10,20,16,58,8.60
2019,10,20,16,59,8.60
2019,10,20,17,00,8.60
2019,10,20,17,01,8.60
2019,10,20,17,02,8.60
2019,10,20,17,03,8.60
2019,10,20,17,04,8.60
2019,10,20,17,05,8.60
2019,10,20,17,06,8.60
2019,10,20,17,07,8.60
2019,10,20,17,08,8.60
2019,10,20,17,09,8.60
2019,10,20,17,10,8.60
2019,10,20,17,11,8.60
2019,10,20,17,12,8.60
2019,10,20,17,13,8.60
2019,10,20,17,14,8.60
2019,10,20,17,15,8.60
2019,10,20,17,16,8.60
2019,10,20,17,17,8.60
2019,10,20,17,18,8.60
2019,10,20,17,19,8.60
2019,10,20,17,20,8.60
2019,10,20,17,21,8.60
2019,10,20,17,22,8.70
2019,10,20,17,23,8.60
2019,10,20,17,24,8.70
2019,10,20,17,25,8.70
2019,10,20,17,26,8.70
2019,10,20,17,27,8.70
2019,10,20,17,28,8.60
2019,10,20,17,29,8.60
2019,10,20,17,30,8.60
2019,10,20,17,31,8.60
2019,10,20,17,32,8.60
2019,10,20,17,33,8.60
2019,10,20,17,34,8.60
2019,10,20,17,35,8.60
2019,10,20,17,36,8.60
2019,10,20,17,37,8.60
2019,10,20,17,38,8.60
2019,10,20,17,39,8.60
2019,10,20,17,40,8.60
2019,10,20,17,41,8.70
2019,10,20,17,42,8.70
2019,10,20,17,43,8.70
2019,10,20,17,44,8.70
2019,10,20,17,45,8.70
2019,10,20,17,46,8.70
2019,10,20,17,47,8.70
2019,10,20,17,48,8.70
2019,10,20,17,49,8.70
2019,10,20,17,50,8.70
2019,10,20,17,51,8.70
2019,10,20,17,52,8.70
2019,10,20,17,53,8.70
2019,10,20,17,54,8.70
2019,10,20,17,55,8.60
2019,10,20,17,56,8.60
2019,10,20,17,57,8.60
2019,10,20,17,58,8.60
2019,10,20,17,59,8.60
2019,10,20,18,00,8.50
2019,10,20,18,01,8.50
2019,10,20,18,02,8.50
2019,10,20,18,03,8.50
2019,10,20,18,04,8.40
2019,10,20,18,05,8.40
2019,10,20,18,06,8.40